Regional Weather Roundup
Issued by NWS

Home | Current Version | Previous Version | Text Only | Print | Product List | Glossary Off
Versions: 1 2 3 4 5 6 7 8 9 10 11 12 13 14 15 16 17 18 19 20 21 22 23 24 25 26 27 28 29 30 31 32 33 34 35 36 37 38 39 40 41 42 43 44 45 46 47 48 49 50

000
ASUS43 KTOP 222308
RWRKS

WEATHER ROUNDUP FOR KANSAS
NATIONAL WEATHER SERVICE GOODLAND KS
600 PM CDT FRI MAY 22 2015

NOTE:  "FAIR" INDICATES FEW OR NO CLOUDS BELOW 12,000 FEET WITH NO
SIGNIFICANT WEATHER AND/OR OBSTRUCTIONS TO VISIBILITY.

KSZ001>006-013>018-027>032-041>047-230000-
NORTHWEST KANSAS

CITY           SKY/WX    TMP DP  RH WIND       PRES   REMARKS
GOODLAND       CLOUDY    55  52  89 SE20G30   29.99F
HAYS           CLOUDY    55  48  76 SE12      30.10F
HILL CITY      CLOUDY    55  50  83 E10       30.10S
RUSSELL        CLOUDY    55  54  96 SE12      30.10F FOG
$$

KSZ061>065-074>080-084>089-230000-
SOUTHWEST KANSAS

CITY           SKY/WX    TMP DP  RH WIND       PRES   REMARKS
DODGE CITY     CLOUDY    55  52  89 S18       30.09S FOG
ELKHART          N/A     67  50  54 S18         N/A
GARDEN CITY    CLOUDY    56  54  93 S16       30.03F
GREAT BEND     CLOUDY    57  52  82 S18G24    30.10S
LIBERAL        CLOUDY    63  55  77 SE17      30.05S
PRATT          CLOUDY    55  54  94 SE10      30.12S FOG
$$

KSZ066>073-081>083-090>101-230000-
SOUTHEAST KANSAS

CITY           SKY/WX    TMP DP  RH WIND       PRES   REMARKS
CHANUTE        CLOUDY    62  50  64 SE7       30.19S
COFFEYVILLE    CLOUDY    64  51  62 E5        30.18F
HUTCHINSON     CLOUDY    61  54  77 SE13      30.13F
MEDICINE LODGE   N/A     57  56  96 SE7       30.11F
NEWTON         CLOUDY    57  50  77 SE9       30.17F
PARSONS        CLOUDY    64  52  64 CALM      30.20F
WICHITA INTL   CLOUDY    62  54  74 SE13      30.14S
WICHITA JABRA  CLOUDY    60  53  77 SE10      30.15F
WICHITA MCCONL CLOUDY    61  55  80 E9        30.14F
WINFIELD       CLOUDY    61  52  72 SE10      30.16F
$$

KSZ007>012-019>026-033>040-048>060-102>105-230000-
NORTHEAST KANSAS

CITY           SKY/WX    TMP DP  RH WIND       PRES   REMARKS
CONCORDIA      CLOUDY    59  50  72 SE9       30.15F
EMPORIA        CLOUDY    62  47  57 SE10      30.19R
LAWRENCE       CLOUDY    63  46  54 SE7       30.22S
MANHATTAN      CLOUDY    64  50  60 SE8       30.17F
MARYSVILLE     CLOUDY    61  46  59 SE8       30.17F
OLATHE IND     CLOUDY    62  50  64 SE8       30.22F
OLATHE EXE     CLOUDY    62  50  64 SE9       30.22F
SALINA         CLOUDY    60  55  83 SE9       30.14F
TOPEKA BILLARD CLOUDY    65  47  52 E12       30.20F
TOPEKA FORBES  CLOUDY    64  48  56 SE9       30.20S
$$



USA.gov is the U.S. government's official web portal to all federal, state and local government web resources and services.